Find Starlink 3048

NORAD ID: 49148 Int'l Des: 2021-082 Owner: SPXS Country: US Constellation: starlink operational
LEOCIRCULAR

Live Position

Loading 3D Globe...

About Starlink 3048

Description loading...

Upcoming Passes

Passes for default location (London). Set your location on the main map for personalized predictions.

Altitude History

Loading altitude history...

Two-Line Element Set

1 49148U 21082U 26121.43284229 .00000226 00000-0 27266-4 0 9992
2 49148 69.9995 142.4108 0003682 272.4866 87.5871 14.97502550254341
Epoch: May 1, 2026 • Age: 12 hours

Current Status

Altitude 597.0 km
Velocity 7.56 km/s
Sub-Earth Point -67.57°S, 178.95°W
Launch Date Sep 14, 2021
Age 4.6 years
Type internet

Technical Details

Classification Payload
Mass 297.00 kg
Dry Mass 275.00 kg
Total Mass 297.00 kg
Length 0.20 m
Diameter 2.80 m
Span 9.00 m
Shape Box + pan
Manufacturer SPXS
Bus Type Starlink
Phase Status In Orbit
Owner/State SPXS/US

Most Searched